www.pogodaiklimat.ru

Погода и климат >> Архив погоды >> Россия >> Краснодарский край >> Кореновск


ПОГОДА в Кореновске

  • Прогноз погоды в Кореновске
  • Монитор погоды в Кореновске

АРХИВ ПОГОДЫ в Кореновске

Время (UTC), дата Ветер
(напр.,м/с)
 
Видим.   Явления Облачность Т
(С)
Тd
(С)
f
(%)
Тe
(С)
Тes
(С)
Комфортность P
(гПа)
Po
(гПа)
Тmin
(С)
Tmax
(С)
R
(мм)
R24
(мм)
S
(см)
21 18.05 СВ 3 10 км 8/3 1500 м
[Sc Ac trans Ci fib]
+20.1 +11.0 56 +22 +22 комфорт 1005.9 1000.3
00 19.05 СВ 3 10 км 10/0
[Ac trans Ci]
+17.9 +10.9 64 +18 +18 1005.5 999.9
03 19.05 ЮВ 1 10 км слаб. ливневой дождь 10/6 600 м
[Cb cap Ac trans Ci fib]
+17.1 +11.7 71 +18 +18 1007.1 1001.4 +17.1 0.0
06 19.05 В 3 10 км слаб. ливневой дождь 9/6 600 м
[Cb cap Ac trans]
+20.1 +13.3 65 +22 +24 комфорт 1007.8 1002.2
09 19.05 В 3 10 км {ливн. осадки} 10/6 600 м
[Cb cap Ac trans Ci fib]
+22.9 +14.7 60 +27 +30 душно 1009.5 1003.9
12 19.05 ЮВ 2 10 км слаб. ливневой дождь 10/8 600 м
[Cb cap Ac trans Ci fib]
+23.1 +15.8 63 +27 +29 душно 1010.9 1005.4
15 19.05 ЮЗ 2 10 км в посл. час ливневой дождь {гроза} 10/10 600 м
[Cb cap]
+20.9 +17.0 78 +25 +25 комфорт 1011.9 1006.3 +24.3 0.1
18 19.05 З 1 10 км {гроза, ливн. осадки} 8/8 600 м
[Cb cap Ci fib]
+19.2 +16.2 83 +22 +22 комфорт 1011.9 1006.3
21 19.05 СЗ 2 10 км 9/9 600 м
[Cb cap]
+18.4 +16.2 87 +20 +20 1012.3 1006.7
00 20.05 штиль 0 4000 м дымка 8/8 600 м
[Cb cap]
+17.7 +16.4 92 +18 +18 1012.6 1007.0
03 20.05 СЗ 2 4000 м дымка 10/10 600 м
[Cb cap]
+17.5 +16.4 93 +18 +18 1013.9 1008.2 +16.9
06 20.05 В 2 10 км {гроза, ливн. осадки} 9/9 600 м
[Cb cap]
+20.4 +14.5 69 +24 +25 комфорт 1014.6 1009.0 +16.7
09 20.05 В 3 10 км 9/9 600 м
[Cb cap]
+24.6 +14.0 52 +27 +29 жарко 1015.9 1010.4
12 20.05 ЮВ 1 10 км 8/5 600 м
[Cb cap Ac trans Ci fib]
+24.5 +14.1 52 +27 +32 жарко 1016.1 1010.6
15 20.05 В 2 10 км 5/3 600 м
[Cb cap Ci fib]
+25.5 +11.9 43 +27 +28 жарко 1015.0 1009.5 +25.8 14
18 20.05 штиль 0 10 км 9/9 600 м
[Cb cap]
+21.7 +15.0 66 +25 +25 комфорт 1016.2 1010.6
21 20.05 СВ 2 10 км ясно +18.3 +10.1 59 +19 +19 1016.6 1010.9
00 21.05 В 3 10 км ясно +15.2 +7.1 58 +15 +15 1016.0 1010.3
03 21.05 В 1 10 км ясно +14.9 +8.3 65 +16 +17 1017.3 1011.5 +13.6
06 21.05 В 3 10 км ясно +20.3 +10.6 54 +22 +31 комфорт 1017.4 1011.8
09 21.05 В 4 10 км 8/0
[Ci]
+24.2 +10.7 43 +25 +36 комфорт 1017.3 1011.7
12 21.05 В 4 10 км 9/1 1000 м
[Cu hum Ci]
+26.9 +9.4 33 +27 +34 жарко 1016.2 1010.7
15 21.05 В 2 10 км 10/0
[Ci]
+26.2 +10.2 37 +27 +29 жарко 1015.2 1009.7 +27.2
18 21.05 СВ 2 10 км 10/6 600 м
[Cb cap Ac trans Ci fib]
+22.4 +10.9 48 +24 +24 комфорт 1014.4 1008.8
21 21.05 В 2 10 км 10/8 1000 м
[Sc Ci fib]
+20.1 +11.3 57 +22 +22 комфорт 1013.6 1008.0
00 22.05 В 4 10 км 8/3 1000 м
[Sc Ci sp]
+19.1 +10.9 59 +20 +20 1013.3 1007.7
03 22.05 ЮВ 3 10 км 8/5 600 м
[Sc Ac trans]
+16.9 +10.5 66 +17 +17 1013.0 1007.3 +16.9
06 22.05 Ю 2 10 км 9/9 600 м
[Cb cap]
+18.7 +12.7 68 +20 +21 1013.4 1007.8 +16.8
09 22.05 С 1 10 км слаб. ливневой дождь 9/9 600 м
[Cb cap]
+18.4 +15.3 82 +20 +22 1013.1 1007.5
12 22.05 ЮЗ 3 10 км {ливн. осадки} 10/8 600 м
[Cb cap Ac trans Ci fib]
+22.5 +13.2 56 +25 +27 комфорт 1013.3 1007.7
15 22.05 СВ 2 10 км 9/8 600 м
[Cb cap Ac trans Ci fib]
+20.2 +15.1 72 +23 +24 комфорт 1012.9 1007.2 +23.2 1
18 22.05 ЮЗ 1 10 км зарница 4/4 600 м
[Cb cap]
+18.4 +14.6 79 +20 +20 1012.9 1007.2
21 22.05 ЮЗ 2 10 км ясно +16.8 +13.4 80 +17 +17 1013.2 1007.5
00 23.05 ЮЗ 2 10 км 9/8 600 м
[Cb cap Ci fib]
+16.5 +12.7 78 +17 +17 1012.6 1006.9
03 23.05 ЮЗ 2 4000 м дымка 4/0
[Ac trans Ci fib]
+15.7 +13.1 85 +16 +16 1012.7 1007.0 +15.2
06 23.05 ЮЗ 3 10 км 3/1 1000 м
[Cu med, cong Ci fib]
+20.5 +12.5 60 +23 +30 комфорт 1012.0 1006.4
09 23.05 З 3 10 км 8/8 600 м
[Cb cap]
+23.5 +9.4 41 +24 +28 комфорт 1011.3 1005.8
12 23.05 З 5-12
{12}
10 км 5/4 600 м
[Cb cap Ci fib]
+25.3 +5.6 28 +25 +29 комфорт 1010.5 1005.0
15 23.05 З 5-10
{12}
10 км 9/6 600 м
[Cb cap Ac trans]
+21.5 +6.7 38 +22 +23 комфорт 1010.9 1005.3 +25.6
18 23.05 ЮЗ 3
{10}
10 км 9/5 600 м
[Cb cap Ac trans]
+20.1 +10.9 55 +22 +22 комфорт 1011.6 1006.0
21 23.05 ЮЗ 2 10 км 6/0
[Ac trans Ci fib]
+17.4 +13.2 76 +18 +18 1011.4 1005.7
00 24.05 ЮЗ 2 10 км 1/0
[Ci fib]
+16.2 +12.8 80 +16 +16 1010.8 1005.1
03 24.05 З 1 10 км 1/0
[Ac trans]
+16.5 +13.5 82 +17 +18 1010.9 1005.2 +15.2
06 24.05 З 2 10 км 3/3 1000 м
[Cu med, cong]
+22.5 +14.1 59 +26 +33 жарко 1010.7 1005.1
09 24.05 З 2 10 км 8/6 1000 м
[Cu med, cong Ci fib]
+25.7 +12.8 45 +28 +34 жарко 1010.4 1004.9
12 24.05 С 2 10 км 8/6 1000 м
[Cu med, cong Ci fib]
+25.5 +11.4 41 +27 +31 жарко 1009.4 1003.9
15 24.05 СВ 1 10 км 8/5 600 м
[Cb cap Ci fib]
+26.1 +10.9 39 +27 +28 жарко 1008.5 1003.0 +27.1
18 24.05 В 2 10 км 9/6 600 м
[Cb cap Ac trans]
+22.3 +12.5 54 +25 +25 комфорт 1008.6 1003.0
21 24.05 ЮВ 2 10 км 9/9 1000 м
[Sc]
+20.4 +13.2 63 +23 +23 комфорт 1008.4 1002.8
00 25.05 В 3 10 км 5/0
[Ac trans Ci fib]
+18.9 +12.7 67 +20 +20 1007.3 1001.7
03 25.05 В 2 10 км 9/0
[Ci]
+18.5 +12.2 67 +20 +20 1006.5 1000.9 +17.5
06 25.05 В 1 10 км 10/5 600 м
[Cb cap Ac und]
+21.7 +13.9 61 +25 +26 комфорт 1006.2 1000.6
09 25.05 СЗ 2 10 км слаб. ливневой дождь 10/10 600 м
[Cb cap]
+18.5 +16.6 89 +20 +20 1006.7 1001.1
12 25.05 штиль 0 10 км гроза, ливневой дождь 9/9 600 м
[Cb cap]
+17.6 +16.2 91 +18 +19 1007.1 1001.5
15 25.05 ЮЗ 4
{13}
10 км в посл. час гроза {ливн. осадки} 9/9 600 м
[Cb cap]
+16.4 +14.4 88 +16 +16 1008.4 1002.7 +21.8 15
18 25.05 ЮЗ 4 10 км {гроза, ливн. осадки} 10/10 600 м
[Cb cap]
+16.7 +13.0 79 +16 +16 1009.9 1004.2

 

Местоположение метеостанции Кореновск (Краснодарский край, Россия): широта 45.47 долгота 39.48 высота над уровнем моря 48 м.

В архиве по умолчанию представлена погода в Кореновске за последнюю неделю. Архивные данные за месяц целиком и за предыдущие месяцы, начиная с января 2011 года, Вы можете получить, выбрав интересующий диапазон дат из раскрывающегося списка и нажав кнопку "Ввод!".


*Определитесь, кто Вы:
робот инопланетянин человек

Внимание! Время в таблицах - всемирное. Для получения местного времени необходимо прибавить поправку, которая равна 3 ч.

Смотрите также архив погоды в соседних городах и на ближайших метеорологических станциях:

Погода в Усть-Лабинске (Краснодарский край, Россия) (33 км)
Погода в Тимашевске (Краснодарский край, Россия) (46 км)
Погода в Краснодаре (Краснодарский край, Россия) (59 км)
Погода в Тихорецке (Краснодарский край, Россия) (63 км)
Погода в Каневской (Краснодарский край, Россия) (78 км)
Погода в Сосыке (Краснодарский край, Россия) (78 км)
Погода в Кропоткине (Краснодарский край, Россия) (85 км)
Погода в Белореченске (Краснодарский край, Россия) (87 км)
Погода в Дондуковской (Адыгея, Россия) (96 км)
Погода в Горячем Ключе (Краснодарский край, Россия) (98 км)

Пояснения к столбцам:

Ветер - указаны скорость ветра в м/с - средняя за 10 мин, порывы в срок и между сроками (в фигурных скобках) и направление, откуда дует ветер: С - северный, СВ - северо-восточный, В - восточный, ЮВ - юго-восточный, Ю - южный, ЮЗ - юго-западный, З - западный, СЗ - северо-западный.
Видимость - горизонтальная дальность видимости в метрах или километрах. При видимости от 1 до 10 км при отсутствии осадков обычно наблюдается дымка, при ухудшении видимости до 1 км и менее - туман. В сухую погоду видимость может ухудшаться дымом, пылью или мглою.
Явления - указаны атмосферные явления, наблюдавшиеся в срок или в последний час перед сроком; фигурными скобками обозначены явления, наблюдавшиеся между сроками (за 1-3 часа до срока); квадратными скобками обозначены град или гололедные отложения с указанием их диаметра в мм.
Облачность - указаны через наклонную черту общая и нижняя облачность в баллах и высота нижней границы облаков в метрах; квадратными скобками обозначены формы облаков: Ci - перистые, Cs - перисто-слоистые, Cc - перисто-кучевые, Ac - высококучевые, As - высокослоистые, Sc - слоисто-кучевые, Ns - слоисто-дождевые, Cu - кучевые, Cb - кучево-дождевые. Подробнее классификацию облаков см. в Атласе облаков (PDF).
T - Температура воздуха - температура, измеренная на высоте 2 м над землей.
Td - Температура точки росы - температура, при понижении до которой содержащийся в воздухе водяной пар достигнет насыщения.
f - Относительная влажность воздуха - влажноcть воздуха, измеренная на высоте 2 м над землей.
Te - Эффективная температура - температура, которую ощущает одетый по сезону человек в тени. Характеристика душности погоды. При расчете учитывается влияние влажности воздуха и скорости ветра на теплоощущения человека.
Tes - Эффективная температура на солнце - температура, которую ощущает человек, с поправкой на солнечный нагрев. Характеристика знойности погоды. Зависит от высоты солнца над горизонтом, облачности и скорости ветра. Ночью, в пасмурную погоду, а также при ветре 12 м/с и более поправка равна нулю.
P - Атмосферное давление - приведенное к уровню моря атмосферное давление.
Po - Атмосферное давление - измеренное на уровне метеостанции атмосферное давление.
Tmin - Минимальная температура - минимум температуры воздуха на высоте 2 м над землей.
Tmax - Максимальная температура - максимум температуры воздуха на высоте 2 м над землей.
R - Количество осадков - Количество выпавших осадков за период времени, мм. При наведении курсора мыши на число - период времени, за который выпало указанное количество осадков.
R24 - Количество осадков - Количество выпавших осадков за 24 часа, мм.
S - Снежный покров - Высота снежного покрова, см. При наведении курсора мыши на число - состояние снежного покрова и степень покрытия местности в баллах.